[[{"header":{"parameterUnit":"m.s-1","parameterCategory":1,"la1":30.2991,"la2":30.254,"lo1":-89.0895,"lo2":-89.0444,"dy":0.0017,"dx":0.0017,"nx":28,"ny":28,"refTime":"2025-07-03T21:00:00:Z","depth":0,"parameterNumber":2,"parameterNumberName":"U-component_of_WINDS"},"data":[0,0,0,0,0,0,0,0,0,0,0,0,0,0,0,0,0,0,0,0,0,0,0,0,0,0,0,0,0,0,0,0,0,0,0,0,0,0,0,0,0,0,0,0,0,0,0,0,0,0,0,0,0,0,0,0,0,0,1.7922,1.7925,0,1.8152,1.8155,1.8157,1.8229,1.8228,1.8227,1.8226,1.8461,1.8469,1.8476,0,0,0,0,0,0,0,0,0,0,0,0,0,1.7546,1.7552,1.7922,1.7925,1.7928,1.8152,1.8155,1.8158,1.8229,1.8228,1.8227,1.8225,1.8459,1.8468,1.8476,0,0,0,0,0,0,0,0,0,0,0,0,0,1.7736,1.7554,1.7922,1.799,1.7999,1.8151,1.8155,1.8159,1.823,1.8228,1.8226,1.8225,1.8456,1.8467,1.8478,1.8578,0,0,1.8511,1.8516,0,0,0,0,0,0,0,0,1.7725,1.7749,1.7977,1.7986,1.7996,1.816,1.8109,1.8299,1.823,1.8142,1.8226,1.8224,1.8363,1.8381,1.8428,1.8589,1.8599,1.8512,1.8519,1.8523,1.8526,0,0,0,0,0,0,0,1.7711,1.774,1.8013,1.7981,1.7992,1.801,1.8035,1.8145,1.8259,1.815,1.8155,1.8182,1.8367,1.8417,1.8434,1.8603,1.8512,1.8521,1.8528,1.8532,1.8859,1.8861,0,0,0,0,0,0,1.7687,1.7728,1.8006,1.802,1.7853,1.8018,1.8046,1.8109,1.8258,1.8279,1.8183,1.8184,1.8399,1.8421,1.8442,1.8571,1.8523,1.8533,1.854,1.8857,1.886,1.8862,0,0,0,0,0,0,1.7678,1.7711,1.7997,1.7876,1.7914,1.8026,1.8096,1.8115,1.8164,1.8283,1.8303,1.8213,1.8399,1.8427,1.8544,1.858,1.8538,1.8548,1.8855,1.8858,1.8861,1.8826,0,0,0,0,0,0,1.7667,1.7707,1.7746,1.7876,1.792,1.8094,1.8099,1.812,1.8183,1.8187,1.8316,1.8336,1.84,1.8527,1.8555,1.8594,1.8557,1.8852,1.8856,1.886,1.8825,1.8828,1.8831,0,0,0,0,0,1.7653,1.7727,1.7748,1.7781,1.7971,1.8096,1.8121,1.8192,1.8186,1.8226,1.8302,1.8332,1.8571,1.8539,1.857,1.8613,1.885,1.8855,1.8859,1.8824,1.8827,1.8831,0,0,0,0,0,0,1.7598,1.7745,1.777,1.7888,1.7979,1.8108,1.8161,1.8194,1.8288,1.8288,1.8373,1.8401,1.8512,1.8575,1.8536,1.8719,1.8712,1.8723,1.8674,1.8678,1.8681,1.8664,1.8566,0,0,0,0,0,1.76,1.7688,1.7813,1.7905,1.7949,1.8047,1.8104,1.8151,1.8249,1.8287,1.8372,1.8466,1.8562,1.8624,1.8719,1.8835,1.8864,1.888,1.8883,1.8884,1.8893,1.8959,1.8968,1.8878,1.8878,1.8877,0,0,1.7603,1.7695,1.7746,1.7896,1.7972,1.8062,1.8079,1.8173,1.8241,1.8302,1.8418,1.8483,1.8593,1.871,1.8766,1.8765,1.8925,1.889,1.8891,1.8899,1.8965,1.8974,1.8981,1.8881,1.888,1.888,0,0,1.7657,1.7735,1.7821,1.7897,1.8012,1.8077,1.8097,1.8222,1.8267,1.8385,1.8432,1.8515,1.8679,1.8756,1.8816,1.89,1.8931,1.8929,1.8944,1.9007,1.9015,1.9021,1.9051,1.9061,1.8937,1.8937,1.8937,0,1.7647,1.7785,1.7861,1.7953,1.8018,1.8078,1.8165,1.8235,1.8375,1.8419,1.8417,1.8625,1.8703,1.8839,1.8859,1.8906,1.8933,1.8914,1.9007,1.9015,1.9022,1.9052,1.9063,1.8936,1.8936,1.8936,1.8936,0,1.7768,1.7863,1.7918,1.8052,1.8124,1.8213,1.8302,1.8366,1.8407,1.8472,1.8591,1.8688,1.8804,1.884,1.8881,1.8982,1.8978,1.8991,1.8985,1.9029,1.9058,1.907,1.8934,1.8935,1.8935,1.8935,0,0,1.7792,1.7967,1.7986,1.8048,1.818,1.8255,1.8348,1.8461,1.8514,1.8609,1.8689,1.8827,1.884,1.8908,1.8959,1.9015,1.9076,1.9021,1.9025,1.9028,1.9194,1.9183,1.9195,1.9098,1.91,1.9102,1.9184,0,1.7862,1.803,1.8101,1.8236,1.8325,1.8383,1.8464,1.8554,1.8618,1.8703,1.8773,1.887,1.8879,1.8921,1.8979,1.9056,1.911,1.9051,1.9173,1.9177,1.9143,1.921,1.9199,1.9272,1.9196,1.9198,1.92,0,1.7966,1.8062,1.8205,1.8328,1.8368,1.8439,1.8549,1.863,1.8733,1.8776,1.8853,1.8901,1.9001,1.899,1.9129,1.9087,1.9142,1.9187,1.9192,1.9205,1.919,1.9225,1.9297,1.9307,1.9218,1.9217,1.9216,0,1.7968,1.8134,1.8241,1.8293,1.8438,1.8486,1.8549,1.8651,1.8715,1.8812,1.8854,1.8961,1.902,1.9102,1.9178,1.9163,1.931,1.9305,1.9349,1.9347,1.9376,1.9373,1.9457,1.9412,1.9412,1.9411,1.9411,0,1.8039,1.8125,1.8245,1.8311,1.8409,1.849,1.8585,1.8652,1.8743,1.8823,1.8881,1.8955,1.9051,1.9138,1.9198,1.9305,1.9331,1.9368,1.9383,1.9363,1.9358,1.9399,1.9396,1.9414,1.9414,1.9413,1.9413,0,1.8058,1.8142,1.8263,1.8391,1.8425,1.8492,1.8601,1.8668,1.8735,1.8836,1.8864,1.8969,1.9075,1.9159,1.9297,1.9337,1.9449,1.9466,1.9414,1.9421,1.946,1.9455,1.9573,1.9592,1.9534,1.9534,1.9535,0,1.8097,1.8165,1.83,1.8358,1.842,1.8513,1.8579,1.8662,1.8728,1.8852,1.8904,1.9013,1.9105,1.9271,1.936,1.9465,1.9485,1.9519,1.9501,1.9479,1.9486,1.948,1.9488,1.9521,1.9521,1.9521,1.9521,0,1.8158,1.8196,1.8289,1.8397,1.8474,1.8563,1.8653,1.8697,1.8797,1.8868,1.8977,1.9048,1.9189,1.9297,1.9413,1.9478,1.9516,1.9526,1.9542,1.9522,1.9489,1.9507,1.9419,1.9523,1.9523,1.9523,1.9523,1.9523,1.8188,1.8251,1.8356,1.8458,1.8535,1.8618,1.8687,1.8763,1.8855,1.8976,1.9019,1.9131,1.9234,1.9393,1.9459,1.9548,1.9551,1.9573,1.9579,1.9583,1.9581,1.9475,1.9569,1.9569,1.9569,1.9569,1.9569,0,1.8251,1.8322,1.8415,1.854,1.862,1.865,1.8751,1.8816,1.8914,1.9006,1.9096,1.9221,1.9327,1.9424,1.9534,1.9587,1.9607,1.9613,1.9609,1.9624,1.9572,1.9547,1.9594,1.9594,1.9594,1.9594,1.9594,1.9594,1.8294,1.8402,1.8453,1.86,1.8671,1.878,1.8836,1.8913,1.8988,1.9124,1.9212,1.9275,1.9371,1.9489,1.9587,1.9613,1.9651,1.9652,1.9682,1.9631,1.9628,1.9624,1.9601,1.9659,1.9659,1.9727,1.9728,1.9728]},{"header":{"parameterUnit":"m.s-1","parameterCategory":1,"la1":30.2991,"la2":30.254,"lo1":-89.0895,"lo2":-89.0444,"dy":0.0017,"dx":0.0017,"nx":28,"ny":28,"refTime":"2025-07-03T21:00:00:Z","depth":0,"parameterNumber":3,"parameterNumberName":"V-component_of_WINDS"},"data":[0,0,0,0,0,0,0,0,0,0,0,0,0,0,0,0,0,0,0,0,0,0,0,0,0,0,0,0,0,0,0,0,0,0,0,0,0,0,0,0,0,0,0,0,0,0,0,0,0,0,0,0,0,0,0,0,0,0,0.0103,0.0102,0,0.0055,0.0055,0.0054,-0.0006,-0.0007,-0.0008,-0.0009,-0.0056,-0.0056,-0.0057,0,0,0,0,0,0,0,0,0,0,0,0,0,0.0141,0.0141,0.0103,0.0102,0.0101,0.0055,0.0055,0.0054,-0.0006,-0.0007,-0.0008,-0.0009,-0.0056,-0.0056,-0.0057,0,0,0,0,0,0,0,0,0,0,0,0,0,0.0112,0.0141,0.0103,0.0066,0.0062,0.0055,0.0055,0.0054,-0.0005,-0.0007,-0.0008,-0.001,-0.0056,-0.0056,-0.0057,-0.0031,0,0,-0.0059,-0.0059,0,0,0,0,0,0,0,0,0.0114,0.0111,0.0072,0.0069,0.0064,0.0029,0.0051,0.0025,-0.0005,0.002,-0.0009,-0.001,-0.0026,-0.003,-0.0035,-0.0034,-0.0036,-0.0059,-0.0059,-0.0059,-0.0059,0,0,0,0,0,0,0,0.0116,0.0113,0.0084,0.0072,0.0067,0.0052,0.0046,0.0046,0.0006,0.0018,0.0014,0.0009,-0.0029,-0.0035,-0.0037,-0.0036,-0.0059,-0.0059,-0.0059,-0.006,-0.0019,-0.0017,0,0,0,0,0,0,0.0124,0.0115,0.0085,0.0082,0.0086,0.0052,0.0046,0.0042,0.0006,-0.0001,0.001,0.0006,-0.0033,-0.0036,-0.0039,-0.0012,-0.0059,-0.006,-0.006,-0.002,-0.0018,-0.0017,0,0,0,0,0,0,0.0125,0.0122,0.0087,0.0097,0.0092,0.0053,0.0049,0.0042,0.0036,-0.0001,-0.0008,0.0012,-0.0034,-0.0038,-0.0033,-0.0015,-0.006,-0.006,-0.0022,-0.002,-0.0018,0.0041,0,0,0,0,0,0,0.0126,0.0122,0.0132,0.0098,0.0091,0.0094,0.005,0.0042,0.0035,0.003,-0.0001,-0.0008,-0.0036,-0.0032,-0.0034,-0.0016,-0.0061,-0.0024,-0.0021,-0.0018,0.0038,0.0045,0.0052,0,0,0,0,0,0.0128,0.0151,0.0133,0.013,0.0103,0.0095,0.0091,0.0058,0.0037,0.0046,0.0022,-0.0007,-0.0017,-0.0031,-0.0034,-0.0016,-0.0025,-0.0022,-0.0019,0.0034,0.0044,0.0052,0,0,0,0,0,0,0.019,0.0146,0.0125,0.0139,0.0121,0.0085,0.0096,0.007,0.0058,0.0054,0.0013,0.0007,0.0016,0.0,-0.0015,0.0005,-0.0025,-0.0022,0.0016,0.0024,0.0031,0.0035,-0.0061,0,0,0,0,0,0.0204,0.0202,0.0164,0.0179,0.0171,0.0135,0.0131,0.0106,0.0087,0.0079,0.0056,0.0038,0.003,0.0026,0.0017,0.0034,0.0026,0.0045,0.0052,0.0058,0.0062,0.0068,0.0076,-0.0006,-0.0006,-0.0006,0,0,0.0236,0.0212,0.0213,0.0191,0.0175,0.0173,0.0129,0.013,0.0127,0.0079,0.0082,0.0064,0.0041,0.0051,0.0055,0.0039,0.0082,0.0062,0.0067,0.0067,0.0072,0.008,0.0087,-0.0004,-0.0005,-0.0005,0,0,0.0292,0.0274,0.0284,0.0268,0.0243,0.0218,0.022,0.0188,0.0174,0.0175,0.0138,0.0135,0.0123,0.0108,0.0099,0.0146,0.0119,0.0144,0.0182,0.0188,0.0195,0.02,0.0217,0.0223,0.0147,0.0147,0.0147,0,0.0335,0.033,0.0293,0.0294,0.0286,0.024,0.025,0.0236,0.0209,0.0204,0.0186,0.0168,0.015,0.0156,0.0167,0.0161,0.0162,0.0148,0.0197,0.0202,0.0207,0.0222,0.0228,0.0151,0.015,0.015,0.015,0,0.0383,0.0381,0.0392,0.0366,0.0358,0.0364,0.0327,0.0323,0.0299,0.0276,0.0277,0.0252,0.0237,0.0236,0.0213,0.0238,0.0229,0.0204,0.0173,0.0218,0.0232,0.0237,0.0155,0.0154,0.0153,0.0152,0,0,0.048,0.0431,0.0436,0.0423,0.0391,0.0388,0.0391,0.0375,0.0372,0.0355,0.0356,0.0345,0.0321,0.0311,0.0285,0.0291,0.0329,0.0265,0.0264,0.0278,0.0354,0.0373,0.0381,0.031,0.0311,0.0312,0.0356,0,0.0531,0.0533,0.0498,0.051,0.0506,0.0461,0.0463,0.0443,0.0421,0.0414,0.039,0.0383,0.0352,0.0345,0.0349,0.0324,0.0344,0.032,0.0311,0.0311,0.0319,0.0388,0.0409,0.0452,0.0361,0.0362,0.0363,0,0.0591,0.0575,0.0587,0.0551,0.0549,0.0551,0.0533,0.0527,0.0503,0.0486,0.0473,0.0443,0.0442,0.0411,0.0409,0.0394,0.0387,0.0374,0.0375,0.0374,0.0341,0.0389,0.0465,0.0472,0.0371,0.037,0.0369,0,0.066,0.0642,0.0646,0.0636,0.0595,0.0598,0.0581,0.0556,0.0548,0.0531,0.0525,0.0509,0.0501,0.0489,0.0455,0.0435,0.0457,0.0423,0.0443,0.0444,0.045,0.0451,0.0527,0.0445,0.0445,0.0445,0.0445,0,0.0721,0.0729,0.0676,0.0679,0.0686,0.0645,0.0654,0.0633,0.0609,0.0607,0.0567,0.0565,0.0519,0.0512,0.0485,0.0488,0.0484,0.047,0.0463,0.0474,0.0476,0.0471,0.0467,0.0447,0.0446,0.0446,0.0446,0,0.08,0.0765,0.0766,0.0727,0.0717,0.0724,0.069,0.0691,0.0665,0.0661,0.0658,0.0618,0.0607,0.0571,0.0552,0.0533,0.0544,0.053,0.0553,0.0548,0.057,0.0568,0.0646,0.0654,0.0567,0.0568,0.0568,0,0.0842,0.0847,0.0808,0.0802,0.0787,0.078,0.0771,0.0729,0.0722,0.0693,0.0697,0.0682,0.0669,0.0653,0.0622,0.0606,0.0592,0.062,0.059,0.06,0.0593,0.0593,0.0593,0.0627,0.0629,0.063,0.063,0,0.0919,0.0901,0.0889,0.0871,0.0861,0.0845,0.0827,0.0825,0.0779,0.0772,0.076,0.0749,0.0728,0.0714,0.0693,0.0675,0.0645,0.064,0.0643,0.0655,0.0668,0.0662,0.0571,0.0639,0.0638,0.0637,0.0637,0.0636,0.0981,0.0983,0.0955,0.0943,0.0924,0.0908,0.0906,0.0878,0.0868,0.0847,0.0823,0.0813,0.0787,0.0755,0.0739,0.0731,0.0714,0.072,0.0721,0.0724,0.0729,0.0668,0.0726,0.0726,0.0726,0.0726,0.0725,0,0.1057,0.1036,0.1025,0.1,0.099,0.0961,0.0938,0.0932,0.0924,0.0901,0.0888,0.0873,0.0859,0.0826,0.0808,0.0807,0.0793,0.0804,0.0804,0.0801,0.0744,0.0743,0.0816,0.0816,0.0816,0.0816,0.0816,0.0816,0.1095,0.1097,0.1075,0.1066,0.1044,0.1035,0.1024,0.1008,0.0989,0.0974,0.0962,0.094,0.0912,0.0892,0.0877,0.0867,0.0863,0.0879,0.0865,0.0813,0.0805,0.0797,0.0795,0.0878,0.0878,0.0921,0.0922,0.0922]}]]